Regional Weather Roundup
Issued by NWS

Home | Current Version | Previous Version | Graphics & Text | Print | Product List | Glossary On
Versions: 1 2 3 4 5 6 7 8 9 10 11 12 13 14 15 16 17 18 19 20 21 22 23 24 25 26 27 28 29 30 31 32 33 34 35 36 37 38 39 40 41 42 43 44 45 46 47 48 49 50
000
ASUS43 KBIS 230820
RWRND

NORTH DAKOTA REGIONAL WEATHER ROUNDUP
NATIONAL WEATHER SERVICE BISMARCK ND
300 AM CDT SAT AUG 23 2014

NOTE: "FAIR" INDICATES FEW OR NO CLOUDS BELOW 12,000 FEET WITH NO
SIGNIFICANT WEATHER AND/OR OBSTRUCTIONS TO VISIBILITY.


NDZ001>003-009>011-017-230900-
NORTHWEST NORTH DAKOTA

CITY           SKY/WX    TMP DP  RH WIND       PRES   REMARKS
WILLISTON      CLOUDY    60  55  83 NE15      30.10F
MINOT          CLOUDY    59  55  87 NE7       30.13S
MINOT AFB      CLOUDY    59  58  95 NE9       30.14S
$$

NDZ018>021-031>035-040>046-230900-
SOUTHWEST NORTH DAKOTA

CITY           SKY/WX    TMP DP  RH WIND       PRES   REMARKS
BISMARCK       CLOUDY    64  61  90 NE16      30.06F
DICKINSON      CLOUDY    62  61  96 E15G23    30.03F FOG
GARRISON         N/A     62  58  86 NE10      30.10F
HETTINGER ARPT CLOUDY    65  63  93 E16       30.01F
$$

NDZ004>008-012>016-024-026-027-054-230900-
NORTHEAST NORTH DAKOTA

CITY           SKY/WX    TMP DP  RH WIND       PRES   REMARKS
GRAND FORKS    CLOUDY    63  61  93 N9        30.06F
GRND FRKS AFB  CLOUDY    61  61 100 N10       30.08F
DEVILS LAKE    CLOUDY    59  54  82 NE10      30.11S
$$

NDZ022-023-025-028>030-036>039-047>053-230900-
SOUTHEAST NORTH DAKOTA

CITY           SKY/WX    TMP DP  RH WIND       PRES   REMARKS
FARGO          CLOUDY    65  63  93 N10       30.03F
JAMESTOWN      CLOUDY    63  59  87 NE13      30.06F
$$




USA.gov is the U.S. government's official web portal to all federal, state and local government web resources and services.